Location: Mount Cross
(36.6390°N, 79.4878°W)
Time: 01:32:57
(UTC+00:00)

SR - Pass Details

Date: 30 March 2023
Orbit: 580 x 867 km, 66.7° (Epoch: 08 June)

Event Time Altitude Azimuth Distance (km) Brightness Sun altitude
Rises 05:27:33 0° 190° (S) 3,057 - -49.7°
Reaches altitude 10° 05:30:02 10° 183° (S) 2,096 - -49.6°
Maximum altitude 05:34:28 42° 113° (ESE) 908 - -49.6°
Drops below altitude 10° 05:38:39 10° 42° (NE) 1,968 - -49.5°
Sets 05:40:55 0° 36° (NE) 2,848 - -49.5°
